TimeEDT,TemperatureF,Dew PointF,Humidity,Sea Level PressureIn,VisibilityMPH,Wind Direction,Wind SpeedMPH,Gust SpeedMPH,PrecipitationIn,Events,Conditions,WindDirDegrees,DateUTC
12:51 AM,71.1,53.1,53,30.21,10.0,SW,6.9,-,N/A,,Clear,230,2013-08-17 04:51:00
1:51 AM,70.0,52.0,53,30.22,10.0,WSW,5.8,-,N/A,,Clear,240,2013-08-17 05:51:00
2:51 AM,70.0,53.1,55,30.22,10.0,West,6.9,-,N/A,,Clear,270,2013-08-17 06:51:00
3:51 AM,70.0,52.0,53,30.22,10.0,Calm,Calm,-,N/A,,Partly Cloudy,0,2013-08-17 07:51:00
4:51 AM,68.0,53.1,59,30.22,10.0,NW,4.6,-,N/A,,Partly Cloudy,310,2013-08-17 08:51:00
5:51 AM,68.0,53.1,59,30.23,10.0,WNW,3.5,-,N/A,,Partly Cloudy,290,2013-08-17 09:51:00
6:51 AM,68.0,54.0,61,30.24,10.0,Calm,Calm,-,N/A,,Mostly Cloudy,0,2013-08-17 10:51:00
7:51 AM,70.0,55.0,59,30.25,10.0,ENE,4.6,-,N/A,,Mostly Cloudy,60,2013-08-17 11:51:00
8:51 AM,70.0,55.0,59,30.27,10.0,ENE,5.8,-,N/A,,Mostly Cloudy,70,2013-08-17 12:51:00
9:51 AM,73.0,55.0,53,30.27,10.0,Calm,Calm,-,N/A,,Mostly Cloudy,0,2013-08-17 13:51:00
10:51 AM,75.0,57.0,53,30.27,10.0,NE,4.6,-,N/A,,Mostly Cloudy,50,2013-08-17 14:51:00
11:51 AM,77.0,57.9,52,30.26,10.0,ENE,8.1,-,N/A,,Mostly Cloudy,60,2013-08-17 15:51:00
12:51 PM,80.1,54.0,40,30.26,10.0,NE,10.4,-,N/A,,Scattered Clouds,50,2013-08-17 16:51:00
1:51 PM,80.1,50.0,35,30.25,10.0,NE,8.1,-,N/A,,Scattered Clouds,40,2013-08-17 17:51:00
2:51 PM,81.0,54.0,39,30.24,10.0,ENE,8.1,-,N/A,,Mostly Cloudy,70,2013-08-17 18:51:00
3:51 PM,80.1,53.1,39,30.23,10.0,Calm,Calm,-,N/A,,Mostly Cloudy,0,2013-08-17 19:51:00
4:51 PM,79.0,51.1,38,30.23,10.0,SE,6.9,-,N/A,,Mostly Cloudy,140,2013-08-17 20:51:00
5:51 PM,79.0,50.0,36,30.23,10.0,South,9.2,-,N/A,,Mostly Cloudy,180,2013-08-17 21:51:00
6:51 PM,77.0,48.9,37,30.24,10.0,South,10.4,-,N/A,,Mostly Cloudy,180,2013-08-17 22:51:00
7:51 PM,75.0,52.0,44,30.25,10.0,South,11.5,-,N/A,,Mostly Cloudy,170,2013-08-17 23:51:00
8:51 PM,73.9,53.1,48,30.26,10.0,South,8.1,-,N/A,,Mostly Cloudy,190,2013-08-18 00:51:00
9:51 PM,73.9,52.0,46,30.26,10.0,South,4.6,-,N/A,,Mostly Cloudy,190,2013-08-18 01:51:00
10:51 PM,73.9,53.1,48,30.27,10.0,SSW,6.9,-,N/A,,Mostly Cloudy,200,2013-08-18 02:51:00
11:51 PM,73.0,52.0,48,30.26,10.0,SSW,3.5,-,N/A,,Mostly Cloudy,210,2013-08-18 03:51:00